Погода в Золотых Песках

Болгария     43°17′11″N   28°02′38″E
темп.,
°C
ветер,
м/с
пор.,
м/с
влажн.,
%
обл.,
%
осадки,
мм/ч
давл.,
гПа
погр.,
м
7 мая, пт
пт700:00+13зсз476912 0.0 101591
03:00+12з337497 0.0 101546
06:00+12зюз117849 0.0 101410
09:00+17ююв26685 0.0 1015277
12:00+19ююв5866100 0.0 1014518
15:00+19ююв5868100 0.0 1013344
18:00+18ююв4674100 0.0 1011212
21:00+14ююв2287100 0.0 101017
8 мая, сб
сб800:00+14ю2290100 0.0 100918
03:00+15юз2288100 0.0 100820
06:00+14зсз338457 0.0 100937
09:00+17зсз11177594 0.0 1012636
12:00+17ссз9116985 0.0 1015844
15:00+16сз7872100 0.0 1016648
18:00+13ссв5876100 0.8 1018661
21:00+10с3682100 1.4 1021364
9 мая, вс
вс900:00+10сз238069 0.2 1023127
03:00+8ссз338238 0.2 102472
06:00+7с47840 0.0 1026178
09:00+11ссв35633 0.0 1028493
12:00+14в34514 0.0 10281306
15:00+13вюв54595 0.0 1028819
18:00+12вюв55585 0.0 1028567
21:00+10юв34661 0.0 1028198
10 мая, пн
пн1000:00+9юв23700 0.0 1028213
03:00+8вюв12724 0.0 1027175
06:00+8всв23745 0.0 1027250
09:00+12в56605 0.0 1027820
12:00+14вюв67552 0.0 10271041
15:00+14в56573 0.0 1026940
18:00+13в45590 0.0 1024708
21:00+10в46710 0.0 1025278
11 мая, вт
вт1100:00+10в34730 0.0 1024225
03:00+9ссз11760 0.0 102344
06:00+8ссз22780 0.0 102243
09:00+13всв22580 0.0 1022365
12:00+15юв22510 0.0 1021799
15:00+16юв33510 0.0 1019853
18:00+16ю22560 0.0 1018403
21:00+12юз22720 0.0 101727